Location: Houston
(29.7630°N, 95.3630°W)
Time: 06:29:59
(UTC-05:00)

Daily predictions for brighter satellites

Satellite Brightness Start Highest point End
(mag) Time Altitude Azimuth Time Altitude Azimuth Time Altitude Azimuth
Cosmos 2208 Rocket 4.4 20:09:10 10° S 20:14:04 41° E 20:19:04 10° NNE
Cosmos 2227 Rocket 4.0 20:11:30 10° NNE 20:14:25 14° ENE 20:17:20 10° E
Meteor 1-13 Rocket 4.3 20:10:54 10° N 20:16:43 85° E 20:22:23 10° S
Meteor 1-5 Rocket 4.5 20:13:07 10° SSE 20:18:01 40° E 20:23:02 10° NNE
Spot 2 Rocket 3.5 20:19:36 10° SSE 20:24:42 79° ENE 20:29:47 10° N
Meteor 1-19 Rocket 4.2 20:20:05 10° N 20:25:44 75° E 20:31:17 10° SSE
Cosmos 2297 Rocket 4.0 20:27:21 10° NNE 20:30:03 13° ENE 20:32:47 10° E
Cosmos 1570 Rocket 4.0 20:25:55 10° S 20:31:11 69° ESE 20:36:26 10° NNE
ATLAS 2A CENTAUR R/B 2.3 20:26:51 10° W 20:33:05 36° SSW 20:35:05 13° SE
Cosmos 1821 Rocket 3.9 20:29:01 10° S 20:35:08 79° E 20:41:14 10° N
Meteor 2-16 Rocket 4.4 20:29:16 10° S 20:35:15 63° E 20:41:14 10° NNE
MDS-1 4.3 20:35:12 10° SW 20:37:00 38° SSE 20:38:55 16° E
Cosmos 1605 Rocket 4.3 20:32:08 10° SSE 20:38:07 45° E 20:44:04 10° NNE
CZ-4B DEB 2.8 20:37:48 10° SSE 20:41:00 60° ENE 20:44:15 10° N
OAO 2 Rocket 3.5 20:38:21 10° WSW 20:43:21 71° NNW 20:48:28 10° ENE
NOSS 7 (H) 4.4 20:48:45 10° SSW 20:52:13 80° WNW 20:55:27 10° NNE
Cosmos 2219 3.8 20:48:24 10° NNW 20:53:54 58° WSW 20:59:23 10° S
Cosmos 1975 3.4 20:50:44 10° SSE 20:54:28 35° E 20:58:13 10° NNE
Iridium 4 Rocket 4.3 20:51:25 10° NNE 20:55:32 26° E 20:56:49 23° ESE
Helios 1A 4.5 20:54:01 10° SSW 20:57:52 37° W 21:01:46 10° NNW
Okean 2 3.3 20:55:59 10° N 21:00:10 79° E 21:04:17 10° S
Cosmos 1697 Rocket 3.1 20:57:53 10° S 21:03:01 37° ESE 21:08:09 10° NE
EO 1 Delta rocket 4.1 20:59:11 10° N 21:03:59 88° WNW 21:09:40 10° S
Cosmos 2278 4.1 20:59:44 10° SSW 21:05:20 66° WNW 21:11:00 10° NNE
H-2A R/B 4.2 21:06:31 11° NE 21:06:31 11° NE 21:06:49 10° NE
BREEZE-M DEB (TANK) 3.7 20:57:11 10° NW 21:05:43 49° WSW 21:07:56 19° SSE
ALOS 2.3 21:03:24 10° S 21:08:04 79° W 21:12:44 10° NNW
Meteor 2-4 Rocket 4.4 21:02:45 10° NNW 21:08:32 61° W 21:14:21 10° S
ERS-1 Rocket 3.8 21:07:44 27° E 21:09:02 31° ENE 21:13:26 10° N
Lacrosse 5 rocket 3.3 21:07:45 10° NNE 21:09:14 12° NE 21:09:24 12° NE
H-2A R/B 2.7 21:08:14 16° S 21:11:12 84° WSW 21:15:06 10° NNW
Cosmos 1455 Rocket 3.8 21:08:51 10° SSW 21:13:03 52° W 21:17:18 10° N
Cosmos 2123 Rocket 3.9 21:07:26 10° N 21:13:38 80° E 21:19:48 10° S
Cosmos 1892 Rocket 4.2 21:09:26 10° NNW 21:13:49 58° W 21:18:12 10° S
Cosmos 1626 Rocket 3.9 21:10:51 10° N 21:15:00 41° E 21:15:36 39° ESE
Meteor 1-12 Rocket 4.2 21:10:08 10° S 21:15:48 82° E 21:21:36 10° N
GOES 2 Rocket 4.0 21:14:38 10° W 21:18:28 34° SSW 21:19:37 29° SSE
Cosmos 2369 4.4 21:13:10 10° SSW 21:18:41 56° WNW 21:24:16 10° N
Cosmos 1461 3.4 21:17:30 10° N 21:21:13 37° ENE 21:21:13 37° ENE
Meteor 2-15 Rocket 4.4 21:15:29 10° N 21:21:34 84° W 21:27:37 10° S
Cosmos 1459 Rocket 4.3 21:21:24 33° ESE 21:22:51 38° E 21:28:24 10° NNE
Cosmos 1602 Rocket 3.7 21:19:06 10° N 21:23:28 53° E 21:24:04 49° ESE
SL-24 R/B - RUBIN 2 4.3 21:19:26 10° SSW 21:25:00 82° WNW 21:31:19 10° NNE
Cosmos 1980 Rocket 3.2 21:26:51 28° ENE 21:26:51 28° ENE 21:30:10 10° NE
Cosmos 1939 Rocket 3.8 21:27:38 33° NE 21:27:38 33° NE 21:30:45 10° N
CZ-2D R/B 4.4 21:24:57 13° SSW 21:28:07 41° W 21:31:48 10° NNW
Resurs 01 Rocket 4.4 21:28:00 10° SW 21:30:43 16° W 21:33:29 10° WNW
Cosmos 468 Rocket 3.8 21:27:24 10° S 21:32:29 70° ESE 21:37:34 10° NNE
Cosmos 1153 Rocket 4.4 21:28:43 10° S 21:34:58 86° W 21:41:09 10° N
Hubble Space Telescope 1.5 21:34:44 10° W 21:38:23 41° SSW 21:38:23 41° SSW
Lacrosse 5 4.0 21:36:46 10° N 21:39:08 13° NE 21:39:26 13° NE
SPOT 5 4.2 21:41:22 27° NE 21:41:22 27° NE 21:44:34 10° NNE
Cosmos 1814 Rocket 3.9 21:37:26 24° S 21:40:38 70° ESE 21:45:57 10° NNE
USA 186 3.7 21:41:34 22° SW 21:42:26 25° W 21:45:03 10° NW
Cosmos 220 Rocket 4.5 21:43:20 10° N 21:46:33 47° NNE 21:46:33 47° NNE
Cosmos 1802 Rocket 4.0 21:47:45 53° ESE 21:48:33 57° E 21:54:49 10° NNE
OTV 4 3.0 21:47:01 10° NW 21:48:16 19° NNW 21:48:16 19° NNW
Delta 2 Rocket 3.8 21:45:26 10° WNW 21:50:56 69° NNE 21:51:17 67° NE
Cosmos 1500 4.1 21:53:26 47° NW 21:53:26 47° NW 21:56:27 10° N
Cosmos 1447 Rocket 4.5 21:47:47 10° N 21:54:09 84° W 21:56:38 40° S
Cosmos 2227 Rocket 2.5 21:53:17 10° NNW 21:58:52 63° WSW 22:00:12 48° SSW
Cosmos 2016 Rocket 4.0 22:07:39 61° NE 22:07:39 61° NE 22:12:58 10° NNE
CZ-3C R/B 3.2 21:36:07 10° W 22:08:02 47° SSW 22:09:52 42° S
Cosmos 2298 Rocket 4.2 22:04:27 10° NNW 22:08:57 63° N 22:08:57 63° N
Cosmos 2082 4.3 22:06:54 10° NNW 22:12:18 50° WSW 22:13:11 45° SW
NOSS 3-4 (A) 4.4 22:06:00 10° NW 22:12:57 52° WSW 22:15:30 37° SSW
NOSS 3-4 (C) 4.4 22:06:07 10° NW 22:13:04 53° WSW 22:15:35 38° SSW
Envisat 3.3 22:14:26 65° WNW 22:14:26 65° WNW 22:19:02 10° NNW
Cosmos 2297 Rocket 2.3 22:08:56 10° NNW 22:14:32 66° WSW 22:14:38 66° WSW
Cosmos 2173 Rocket 4.3 22:17:29 42° SSW 22:19:39 66° W 22:25:59 10° N
Cosmos 2098 Rocket 4.4 22:26:49 58° NNE 22:26:49 58° NNE 22:31:55 10° N
OAO 2 Rocket 4.5 22:23:39 10° WNW 22:27:31 40° NW 22:27:31 40° NW
Cosmos 1980 Rocket 4.1 23:08:26 25° WNW 23:09:04 25° WNW 23:13:45 10° N
Milstar 3 Cent rocket 3.8 22:59:15 10° W 23:14:46 69° SW 23:14:46 69° SW
